COSMOS 2436 (723)

Last updated on Wed Nov 20 2024 00:03:10 GMT+0000 (Coordinated Universal Time)

1 32395U 07065C 24324.31239925 .00000019 00000+0 00000+0 0 9997 2 32395 64.3241 211.3900 0017223 5.5211 203.9428 2.13100021131473
UTC large
Height (km)
Speed (km/s)
/
Latitude / Longitude
Inclination (degrees)
Orbital Period (minutes)
Azimuth
Elevation
Range (km)
Doppler Factor

Next 0 passes for location: London (51.5072 / 0.1276)

Sorry there are no passes over London.